When you browse on this site, cookies collect data to enhance your experience and personalize the content and advertising you see.
Visit our Privacy Policy to learn more. By continuing to use the site, you agree to this use of cookies and data.
  • In Schweiz
  • Länderverzeichnis
  • Für 7 Tage
  • Wassertemperatur
  • Satellitenkarten
  • Wetterkarte
  • Widgets
  • user-avatar
    Anmelden

    Stündliche Wetter La Rioja

    Heute, 20 März, Mittwoch

    Zeit Temperatur Niederschläge Wind Luftdruck Luftfeuchtigkeit
    00:00 +20°C° 0 mm 3 m/S 721 mmHg 58%
    01:00 +19°C° 0 mm 3 m/S 721 mmHg 60%
    02:00 +19°C° 0 mm 2 m/S 721 mmHg 61%
    03:00 +18°C° 0 mm 2 m/S 721 mmHg 63%
    04:00 +17°C° 0 mm 2 m/S 721 mmHg 65%
    05:00 +17°C° 0 mm 2 m/S 720 mmHg 66%
    06:00 +17°C° 0 mm 2 m/S 720 mmHg 65%
    07:00 +18°C° 0 mm 2 m/S 720 mmHg 63%
    08:00 +18°C° 0 mm 2 m/S 720 mmHg 61%
    09:00 +19°C° 0 mm 2 m/S 720 mmHg 59%
    10:00 +20°C° 0 mm 3 m/S 720 mmHg 57%
    11:00 +21°C° 0 mm 4 m/S 720 mmHg 54%
    12:00 +21°C° 0 mm 4 m/S 719 mmHg 53%
    13:00 +22°C° 0 mm 4 m/S 719 mmHg 51%
    14:00 +22°C° 0 mm 4 m/S 718 mmHg 49%
    15:00 +22°C° 0 mm 4 m/S 717 mmHg 47%
    16:00 +24°C° 0 mm 3 m/S 717 mmHg 45%
    17:00 +24°C° 0 mm 3 m/S 717 mmHg 43%
    18:00 +22°C° 0 mm 3 m/S 717 mmHg 47%
    19:00 +21°C° 0 mm 2 m/S 718 mmHg 51%
    20:00 +19°C° 0 mm 2 m/S 719 mmHg 56%
    21:00 +19°C° 0 mm 2 m/S 719 mmHg 58%
    22:00 +18°C° 0 mm 2 m/S 719 mmHg 60%
    23:00 +18°C° 0 mm 1 m/S 720 mmHg 63%

    Morgen, 21 März, Donnerstag

    Zeit Temperatur Niederschläge Wind Luftdruck Luftfeuchtigkeit
    00:00 +18°C° 0 mm 1 m/S 719 mmHg 64%
    01:00 +16°C° 0 mm 1 m/S 719 mmHg 66%
    02:00 +16°C° 0 mm 1 m/S 718 mmHg 68%
    03:00 +15°C° 0 mm 1 m/S 718 mmHg 68%
    04:00 +15°C° 0 mm 1 m/S 717 mmHg 69%
    05:00 +15°C° 0 mm 1 m/S 716 mmHg 69%
    06:00 +16°C° 0 mm 1 m/S 717 mmHg 64%
    07:00 +18°C° 0 mm 1 m/S 717 mmHg 59%
    08:00 +19°C° 0 mm 1 m/S 717 mmHg 54%
    09:00 +19°C° 0 mm 2 m/S 716 mmHg 52%
    10:00 +21°C° 0 mm 2 m/S 716 mmHg 49%
    11:00 +22°C° 0 mm 3 m/S 716 mmHg 47%
    12:00 +24°C° 0 mm 3 m/S 715 mmHg 45%
    13:00 +26°C° 0 mm 3 m/S 714 mmHg 43%
    14:00 +27°C° 0 mm 3 m/S 713 mmHg 41%
    15:00 +27°C° 0 mm 3 m/S 713 mmHg 41%
    16:00 +27°C° 0 mm 3 m/S 712 mmHg 41%
    17:00 +27°C° 0 mm 4 m/S 711 mmHg 42%
    18:00 +26°C° 0 mm 3 m/S 712 mmHg 47%
    19:00 +24°C° 0 mm 3 m/S 713 mmHg 52%
    20:00 +21°C° 0 mm 3 m/S 713 mmHg 57%
    21:00 +20°C° 0 mm 2 m/S 714 mmHg 62%
    22:00 +19°C° 0 mm 2 m/S 715 mmHg 66%
    23:00 +19°C° 0 mm 1 m/S 716 mmHg 71%

    übermorgen, 22 März, Freitag

    Zeit Temperatur Niederschläge Wind Luftdruck Luftfeuchtigkeit
    00:00 +19°C° 0 mm 1 m/S 716 mmHg 71%
    01:00 +19°C° 0 mm 1 m/S 716 mmHg 72%
    02:00 +18°C° 0 mm 2 m/S 716 mmHg 73%
    03:00 +18°C° 0 mm 1 m/S 716 mmHg 75%
    04:00 +18°C° 0 mm 1 m/S 716 mmHg 77%
    05:00 +16°C° 0 mm 1 m/S 716 mmHg 79%
    06:00 +18°C° 0 mm 1 m/S 716 mmHg 74%
    07:00 +19°C° 0 mm 1 m/S 717 mmHg 68%
    08:00 +20°C° 0 mm 1 m/S 717 mmHg 63%
    09:00 +21°C° 0 mm 2 m/S 717 mmHg 58%
    10:00 +24°C° 0 mm 2 m/S 717 mmHg 53%
    11:00 +25°C° 0 mm 3 m/S 717 mmHg 48%
    12:00 +26°C° 0 mm 3 m/S 717 mmHg 45%
    13:00 +28°C° 0 mm 3 m/S 716 mmHg 43%
    14:00 +29°C° 0 mm 3 m/S 715 mmHg 41%
    15:00 +29°C° 0 mm 3 m/S 715 mmHg 40%
    16:00 +29°C° 0 mm 3 m/S 715 mmHg 40%
    17:00 +29°C° 0 mm 3 m/S 714 mmHg 40%
    18:00 +27°C° 0 mm 2 m/S 714 mmHg 44%
    19:00 +25°C° 0 mm 2 m/S 715 mmHg 49%
    20:00 +23°C° 0 mm 1 m/S 715 mmHg 54%
    21:00 +22°C° 0 mm 1 m/S 715 mmHg 57%
    22:00 +22°C° 0 mm 1 m/S 716 mmHg 60%
    23:00 +19°C° 0 mm 0 m/S 716 mmHg 63%

    23 März, Samstag

    Zeit Temperatur Niederschläge Wind Luftdruck Luftfeuchtigkeit
    00:00 +19°C° 0 mm 0 m/S 715 mmHg 65%
    01:00 +18°C° 0 mm 0 m/S 715 mmHg 67%
    02:00 +18°C° 0 mm 0 m/S 714 mmHg 69%
    03:00 +18°C° 0 mm 0 m/S 714 mmHg 70%
    04:00 +17°C° 0 mm 0 m/S 714 mmHg 72%
    05:00 +19°C° 0 mm 1 m/S 714 mmHg 73%
    06:00 +20°C° 0 mm 1 m/S 714 mmHg 68%
    07:00 +21°C° 0 mm 1 m/S 714 mmHg 63%
    08:00 +23°C° 0 mm 1 m/S 714 mmHg 58%
    09:00 +25°C° 0 mm 1 m/S 714 mmHg 53%
    10:00 +26°C° 0 mm 2 m/S 714 mmHg 49%
    11:00 +28°C° 0 mm 3 m/S 714 mmHg 44%
    12:00 +29°C° 0 mm 3 m/S 713 mmHg 42%
    13:00 +30°C° 0 mm 3 m/S 712 mmHg 39%
    14:00 +31°C° 0 mm 3 m/S 712 mmHg 37%
    15:00 +33°C° 0 mm 3 m/S 712 mmHg 36%
    16:00 +33°C° 0 mm 3 m/S 712 mmHg 36%
    17:00 +33°C° 0 mm 3 m/S 712 mmHg 35%
    18:00 +30°C° 0 mm 3 m/S 712 mmHg 39%
    19:00 +29°C° 0 mm 3 m/S 713 mmHg 44%
    20:00 +27°C° 0 mm 3 m/S 714 mmHg 48%
    21:00 +26°C° 0 mm 3 m/S 714 mmHg 51%
    22:00 +26°C° 0 mm 3 m/S 715 mmHg 54%
    23:00 +25°C° 0 mm 3 m/S 716 mmHg 56%

    24 März, Sonntag

    Zeit Temperatur Niederschläge Wind Luftdruck Luftfeuchtigkeit
    00:00 +25°C° 0 mm 3 m/S 716 mmHg 57%
    01:00 +24°C° 0 mm 3 m/S 716 mmHg 58%
    02:00 +24°C° 0 mm 3 m/S 716 mmHg 58%
    03:00 +22°C° 0 mm 3 m/S 717 mmHg 59%
    04:00 +22°C° 0 mm 3 m/S 717 mmHg 59%
    05:00 +22°C° 0 mm 3 m/S 717 mmHg 60%
    06:00 +22°C° 0 mm 3 m/S 718 mmHg 58%
    07:00 +22°C° 0 mm 4 m/S 719 mmHg 56%
    08:00 +23°C° 0 mm 4 m/S 719 mmHg 54%
    09:00 +25°C° 0 mm 4 m/S 719 mmHg 49%
    10:00 +26°C° 0 mm 4 m/S 719 mmHg 44%
    11:00 +27°C° 0 mm 4 m/S 719 mmHg 39%
    12:00 +28°C° 0 mm 4 m/S 718 mmHg 38%
    13:00 +28°C° 0 mm 4 m/S 717 mmHg 37%
    14:00 +29°C° 0 mm 3 m/S 716 mmHg 36%
    15:00 +29°C° 0 mm 3 m/S 715 mmHg 37%
    16:00 +29°C° 0 mm 3 m/S 715 mmHg 38%
    17:00 +29°C° 0 mm 3 m/S 714 mmHg 39%
    18:00 +28°C° 0 mm 3 m/S 715 mmHg 44%
    19:00 +26°C° 0 mm 2 m/S 715 mmHg 49%
    20:00 +25°C° 0 mm 1 m/S 716 mmHg 54%
    21:00 +24°C° 0 mm 1 m/S 716 mmHg 57%
    22:00 +23°C° 0 mm 1 m/S 717 mmHg 60%
    23:00 +20°C° 0 mm 0 m/S 717 mmHg 63%

    25 März, Montag

    Zeit Temperatur Niederschläge Wind Luftdruck Luftfeuchtigkeit
    00:00 +22°C° 0 mm 1 m/S 717 mmHg 64%
    01:00 +22°C° 0 mm 1 m/S 717 mmHg 64%
    02:00 +21°C° 0 mm 1 m/S 717 mmHg 65%
    03:00 +21°C° 0 mm 1 m/S 716 mmHg 65%
    04:00 +20°C° 0 mm 1 m/S 716 mmHg 65%
    05:00 +20°C° 0 mm 1 m/S 716 mmHg 65%
    06:00 +19°C° 0 mm 2 m/S 716 mmHg 61%
    07:00 +20°C° 0 mm 2 m/S 717 mmHg 56%
    08:00 +21°C° 0 mm 2 m/S 717 mmHg 51%
    09:00 +23°C° 0 mm 2 m/S 717 mmHg 48%
    10:00 +25°C° 0 mm 2 m/S 717 mmHg 45%
    11:00 +26°C° 0 mm 3 m/S 717 mmHg 42%
    12:00 +27°C° 0 mm 3 m/S 716 mmHg 40%
    13:00 +28°C° 0 mm 3 m/S 715 mmHg 39%
    14:00 +29°C° 0 mm 3 m/S 714 mmHg 37%
    15:00 +29°C° 0 mm 3 m/S 714 mmHg 37%
    16:00 +29°C° 0 mm 3 m/S 714 mmHg 36%
    17:00 +29°C° 0 mm 4 m/S 713 mmHg 36%
    18:00 +28°C° 0 mm 3 m/S 714 mmHg 39%
    19:00 +26°C° 0 mm 3 m/S 715 mmHg 43%
    20:00 +24°C° 0 mm 3 m/S 715 mmHg 47%
    21:00 +23°C° 0 mm 2 m/S 716 mmHg 50%
    22:00 +22°C° 0 mm 1 m/S 716 mmHg 53%
    23:00 +21°C° 0 mm 1 m/S 717 mmHg 56%
    Mehr zeigen